Location: Unspecified
(0.0000°N, 0.0000°E)
Time: 16:13:02
(UTC+00:00)

Courier 1B Rocket - Pass Details

Date: 29 April 2024
Orbit: 920 x 1201 km, 28.3° (Epoch: 27 May)

Event Time Altitude Azimuth Distance (km) Brightness Sun altitude
Rises 19:12:40 0° 229° (SW) 3,669 8.5 -18.2°
Reaches altitude 10° 19:15:21 10° 224° (SW) 2,757 7.7 -18.8°
Maximum altitude 19:21:50 49° 150° (SSE) 1,319 5.4 -20.4°
Enters shadow 19:24:13 36° 101° (E) 1,620 5.6 -21.0°
